owner,sensor,date,latitude,longitude,vertical_datum,wind_speed,wind_to_direction,wind_speed_of_gust,qcFlag 
COMPS,ioos:station:USF.COMPS:BGC:1,2016-01-01T03:00:00Z,26.4040,-81.8810,10.0,0.3,78.94,0.78,'1111122,1111122,1111122' 
COMPS,ioos:station:USF.COMPS:BGC:1,2016-01-01T03:06:00Z,26.4040,-81.8810,10.0,0.12,81.5,0.39,'1111122,1111122,1111122' 
COMPS,ioos:station:USF.COMPS:BGC:1,2016-01-01T03:12:00Z,26.4040,-81.8810,10.0,0.33,85.23,0.68,'1111122,1111122,1111122' 
COMPS,ioos:station:USF.COMPS:BGC:1,2016-01-01T03:18:00Z,26.4040,-81.8810,10.0,0.53,91.76,0.78,'1111122,1111122,1111122' 
COMPS,ioos:station:USF.COMPS:BGC:1,2016-01-01T03:24:00Z,26.4040,-81.8810,10.0,0.46,90.51,0.98,'1111122,1111122,1111122' 
COMPS,ioos:station:USF.COMPS:BGC:1,2016-01-01T03:30:00Z,26.4040,-81.8810,10.0,1.05,59.63,1.37,'1111122,1111122,1111122' 
COMPS,ioos:station:USF.COMPS:BGC:1,2016-01-01T03:36:00Z,26.4040,-81.8810,10.0,0.92,44.56,1.17,'1111122,1111122,1111122' 
COMPS,ioos:station:USF.COMPS:BGC:1,2016-01-01T03:42:00Z,26.4040,-81.8810,10.0,0.43,44.71,0.78,'1111122,1111122,1111122' 
COMPS,ioos:station:USF.COMPS:BGC:1,2016-01-01T03:48:00Z,26.4040,-81.8810,10.0,0.23,12.78,0.49,'1111122,1111122,1111122' 
COMPS,ioos:station:USF.COMPS:BGC:1,2016-01-01T03:54:00Z,26.4040,-81.8810,10.0,0.0,312.96,0.29,'1114422,1111122,1111122' 
COMPS,ioos:station:USF.COMPS:BGC:1,2016-01-01T04:00:00Z,26.4040,-81.8810,10.0,0.08,83.17,0.49,'1111122,1111122,1111122' 
COMPS,ioos:station:USF.COMPS:BGC:1,2016-01-01T04:06:00Z,26.4040,-81.8810,10.0,0.6,83.28,0.78,'1111122,1111122,1111122' 
COMPS,ioos:station:USF.COMPS:BGC:1,2016-01-01T04:12:00Z,26.4040,-81.8810,10.0,0.99,79.17,1.37,'1111122,1111122,1111122' 
COMPS,ioos:station:USF.COMPS:BGC:1,2016-01-01T04:18:00Z,26.4040,-81.8810,10.0,1.13,71.7,1.47,'1111122,1111122,1111122' 
COMPS,ioos:station:USF.COMPS:BGC:1,2016-01-01T04:24:00Z,26.4040,-81.8810,10.0,1.31,66.72,1.86,'1111122,1111122,1111122' 
COMPS,ioos:station:USF.COMPS:BGC:1,2016-01-01T04:30:00Z,26.4040,-81.8810,10.0,1.22,55.68,1.86,'1111122,1111122,1111122' 
COMPS,ioos:station:USF.COMPS:BGC:1,2016-01-01T04:36:00Z,26.4040,-81.8810,10.0,1.55,68.05,2.15,'1111122,1111122,1111122' 
COMPS,ioos:station:USF.COMPS:BGC:1,2016-01-01T04:42:00Z,26.4040,-81.8810,10.0,1.52,76.33,1.96,'1111122,1111122,1111122' 
COMPS,ioos:station:USF.COMPS:BGC:1,2016-01-01T04:48:00Z,26.4040,-81.8810,10.0,1.9,70.87,2.54,'1111122,1111122,1111122' 
COMPS,ioos:station:USF.COMPS:BGC:1,2016-01-01T04:54:00Z,26.4040,-81.8810,10.0,1.7,65.69,2.64,'1111122,1111122,1111122' 
COMPS,ioos:station:USF.COMPS:BGC:1,2016-01-01T05:00:00Z,26.4040,-81.8810,10.0,1.76,67.18,2.15,'1111122,1111122,1111122' 
COMPS,ioos:station:USF.COMPS:BGC:1,2016-01-01T05:06:00Z,26.4040,-81.8810,10.0,1.68,73.13,2.54,'1111122,1111122,1111122' 
COMPS,ioos:station:USF.COMPS:BGC:1,2016-01-01T05:12:00Z,26.4040,-81.8810,10.0,1.93,76.27,2.25,'1111122,1111122,1111122' 
COMPS,ioos:station:USF.COMPS:BGC:1,2016-01-01T05:18:00Z,26.4040,-81.8810,10.0,2.03,74.87,2.45,'1111122,1111122,1111122' 
COMPS,ioos:station:USF.COMPS:BGC:1,2016-01-01T05:24:00Z,26.4040,-81.8810,10.0,2.17,71.18,2.94,'1111122,1111122,1111122' 
COMPS,ioos:station:USF.COMPS:BGC:1,2016-01-01T05:30:00Z,26.4040,-81.8810,10.0,2.37,70.7,2.94,'1111122,1111122,1111122' 
COMPS,ioos:station:USF.COMPS:BGC:1,2016-01-01T05:36:00Z,26.4040,-81.8810,10.0,2.04,63.94,2.94,'1111122,1111122,1111122' 
COMPS,ioos:station:USF.COMPS:BGC:1,2016-01-01T05:42:00Z,26.4040,-81.8810,10.0,1.94,55.58,2.54,'1111122,1111122,1111122' 
COMPS,ioos:station:USF.COMPS:BGC:1,2016-01-01T05:48:00Z,26.4040,-81.8810,10.0,1.25,67.92,2.64,'1111122,1111122,1111122' 
COMPS,ioos:station:USF.COMPS:BGC:1,2016-01-01T05:54:00Z,26.4040,-81.8810,10.0,1.45,54.79,2.15,'1111122,1111122,1111122' 
COMPS,ioos:station:USF.COMPS:BGC:1,2016-01-01T06:00:00Z,26.4040,-81.8810,10.0,1.91,62.13,2.64,'1111122,1111122,1111122' 
COMPS,ioos:station:USF.COMPS:BGC:1,2016-01-01T06:06:00Z,26.4040,-81.8810,10.0,1.58,59.16,2.35,'1111122,1111122,1111122' 
COMPS,ioos:station:USF.COMPS:BGC:1,2016-01-01T06:12:00Z,26.4040,-81.8810,10.0,1.37,58.15,2.05,'1111122,1111122,1111122' 
COMPS,ioos:station:USF.COMPS:BGC:1,2016-01-01T06:18:00Z,26.4040,-81.8810,10.0,1.25,66.41,1.96,'1111122,1111122,1111122' 
COMPS,ioos:station:USF.COMPS:BGC:1,2016-01-01T06:24:00Z,26.4040,-81.8810,10.0,0.71,89.8,2.25,'1111122,1111122,1111122' 
COMPS,ioos:station:USF.COMPS:BGC:1,2016-01-01T06:30:00Z,26.4040,-81.8810,10.0,1.96,83.38,2.64,'1111122,1111122,1111122' 
COMPS,ioos:station:USF.COMPS:BGC:1,2016-01-01T06:36:00Z,26.4040,-81.8810,10.0,1.72,86.39,2.54,'1111122,1111122,1111122' 
COMPS,ioos:station:USF.COMPS:BGC:1,2016-01-01T06:42:00Z,26.4040,-81.8810,10.0,1.91,83.7,2.54,'1111122,1111122,1111122' 
COMPS,ioos:station:USF.COMPS:BGC:1,2016-01-01T06:48:00Z,26.4040,-81.8810,10.0,1.68,77.81,2.54,'1111122,1111122,1111122' 
COMPS,ioos:station:USF.COMPS:BGC:1,2016-01-01T06:54:00Z,26.4040,-81.8810,10.0,1.76,83.96,2.45,'1111122,1111122,1111122' 
COMPS,ioos:station:USF.COMPS:BGC:1,2016-01-01T07:00:00Z,26.4040,-81.8810,10.0,1.65,75.64,2.15,'1111122,1111122,1111122' 
COMPS,ioos:station:USF.COMPS:BGC:1,2016-01-01T07:06:00Z,26.4040,-81.8810,10.0,1.95,82.18,2.35,'1111122,1111122,1111122' 
COMPS,ioos:station:USF.COMPS:BGC:1,2016-01-01T07:12:00Z,26.4040,-81.8810,10.0,1.73,81.98,2.15,'1111122,1111122,1111122' 
COMPS,ioos:station:USF.COMPS:BGC:1,2016-01-01T07:18:00Z,26.4040,-81.8810,10.0,1.66,80.56,2.45,'1111122,1111122,1111122' 
COMPS,ioos:station:USF.COMPS:BGC:1,2016-01-01T07:24:00Z,26.4040,-81.8810,10.0,2.15,76.83,2.74,'1111122,1111122,1111122' 
COMPS,ioos:station:USF.COMPS:BGC:1,2016-01-01T07:30:00Z,26.4040,-81.8810,10.0,2.06,75.91,2.64,'1111122,1111122,1111122' 
COMPS,ioos:station:USF.COMPS:BGC:1,2016-01-01T07:36:00Z,26.4040,-81.8810,10.0,2.01,69.71,3.03,'1111122,1111122,1111122' 
COMPS,ioos:station:USF.COMPS:BGC:1,2016-01-01T07:42:00Z,26.4040,-81.8810,10.0,1.67,65.54,2.45,'1111122,1111122,1111122' 
COMPS,ioos:station:USF.COMPS:BGC:1,2016-01-01T07:48:00Z,26.4040,-81.8810,10.0,1.91,66.12,2.54,'1111122,1111122,1111122' 
COMPS,ioos:station:USF.COMPS:BGC:1,2016-01-01T07:54:00Z,26.4040,-81.8810,10.0,2.2,71.27,2.84,'1111122,1111122,1111122' 
COMPS,ioos:station:USF.COMPS:BGC:1,2016-01-01T08:00:00Z,26.4040,-81.8810,10.0,2.15,63.91,2.84,'1111122,1111122,1111122' 
COMPS,ioos:station:USF.COMPS:BGC:1,2016-01-01T08:06:00Z,26.4040,-81.8810,10.0,1.82,62.98,2.45,'1111122,1111122,1111122' 
COMPS,ioos:station:USF.COMPS:BGC:1,2016-01-01T08:12:00Z,26.4040,-81.8810,10.0,1.86,59.25,2.35,'1111122,1111122,1111122' 
COMPS,ioos:station:USF.COMPS:BGC:1,2016-01-01T08:18:00Z,26.4040,-81.8810,10.0,1.48,59.19,2.35,'1111122,1111122,1111122' 
COMPS,ioos:station:USF.COMPS:BGC:1,2016-01-01T08:24:00Z,26.4040,-81.8810,10.0,1.55,57.26,2.05,'1111122,1111122,1111122' 
COMPS,ioos:station:USF.COMPS:BGC:1,2016-01-01T08:30:00Z,26.4040,-81.8810,10.0,1.06,51.68,1.56,'1111122,1111122,1111122' 
COMPS,ioos:station:USF.COMPS:BGC:1,2016-01-01T08:36:00Z,26.4040,-81.8810,10.0,1.35,44.0,1.76,'1111122,1111122,1111122' 
COMPS,ioos:station:USF.COMPS:BGC:1,2016-01-01T08:42:00Z,26.4040,-81.8810,10.0,1.24,29.24,1.56,'1111122,1111122,1111122' 
COMPS,ioos:station:USF.COMPS:BGC:1,2016-01-01T08:48:00Z,26.4040,-81.8810,10.0,1.13,37.75,1.37,'1111122,1111122,1111122' 
COMPS,ioos:station:USF.COMPS:BGC:1,2016-01-01T08:54:00Z,26.4040,-81.8810,10.0,1.15,58.48,1.47,'1111122,1111122,1111122' 
COMPS,ioos:station:USF.COMPS:BGC:1,2016-01-01T09:00:00Z,26.4040,-81.8810,10.0,0.94,54.75,1.27,'1111122,1111122,1111122' 
COMPS,ioos:station:USF.COMPS:BGC:1,2016-01-01T09:06:00Z,26.4040,-81.8810,10.0,1.02,56.17,1.37,'1111122,1111122,1111122' 
COMPS,ioos:station:USF.COMPS:BGC:1,2016-01-01T09:12:00Z,26.4040,-81.8810,10.0,1.2,55.83,1.76,'1111122,1111122,1111122' 
COMPS,ioos:station:USF.COMPS:BGC:1,2016-01-01T09:18:00Z,26.4040,-81.8810,10.0,0.89,55.41,1.27,'1111122,1111122,1111122' 
COMPS,ioos:station:USF.COMPS:BGC:1,2016-01-01T09:24:00Z,26.4040,-81.8810,10.0,1.18,42.64,1.66,'1111122,1111122,1111122' 
COMPS,ioos:station:USF.COMPS:BGC:1,2016-01-01T09:30:00Z,26.4040,-81.8810,10.0,1.67,27.46,1.96,'1111122,1111122,1111122' 
COMPS,ioos:station:USF.COMPS:BGC:1,2016-01-01T09:36:00Z,26.4040,-81.8810,10.0,1.59,31.21,1.96,'1111122,1111122,1111122' 
COMPS,ioos:station:USF.COMPS:BGC:1,2016-01-01T09:42:00Z,26.4040,-81.8810,10.0,1.39,29.84,1.76,'1111122,1111122,1111122' 
COMPS,ioos:station:USF.COMPS:BGC:1,2016-01-01T09:48:00Z,26.4040,-81.8810,10.0,1.75,46.96,2.05,'1111122,1111122,1111122' 
COMPS,ioos:station:USF.COMPS:BGC:1,2016-01-01T09:54:00Z,26.4040,-81.8810,10.0,1.98,48.83,2.45,'1111122,1111122,1111122' 
COMPS,ioos:station:USF.COMPS:BGC:1,2016-01-01T10:00:00Z,26.4040,-81.8810,10.0,2.01,56.8,2.45,'1111122,1111122,1111122' 
COMPS,ioos:station:USF.COMPS:BGC:1,2016-01-01T10:06:00Z,26.4040,-81.8810,10.0,2.1,66.19,2.54,'1111122,1111122,1111122' 
COMPS,ioos:station:USF.COMPS:BGC:1,2016-01-01T10:12:00Z,26.4040,-81.8810,10.0,1.93,69.11,2.64,'1111122,1111122,1111122' 
COMPS,ioos:station:USF.COMPS:BGC:1,2016-01-01T10:18:00Z,26.4040,-81.8810,10.0,1.83,72.45,2.45,'1111122,1111122,1111122' 
COMPS,ioos:station:USF.COMPS:BGC:1,2016-01-01T10:24:00Z,26.4040,-81.8810,10.0,2.02,72.37,2.74,'1111122,1111122,1111122' 
COMPS,ioos:station:USF.COMPS:BGC:1,2016-01-01T10:30:00Z,26.4040,-81.8810,10.0,2.13,74.87,2.84,'1111122,1111122,1111122' 
COMPS,ioos:station:USF.COMPS:BGC:1,2016-01-01T10:36:00Z,26.4040,-81.8810,10.0,1.77,69.75,2.35,'1111122,1111122,1111122' 
COMPS,ioos:station:USF.COMPS:BGC:1,2016-01-01T10:42:00Z,26.4040,-81.8810,10.0,1.67,68.44,2.25,'1111122,1111122,1111122' 
COMPS,ioos:station:USF.COMPS:BGC:1,2016-01-01T10:48:00Z,26.4040,-81.8810,10.0,1.3,54.67,1.66,'1111122,1111122,1111122' 
COMPS,ioos:station:USF.COMPS:BGC:1,2016-01-01T10:54:00Z,26.4040,-81.8810,10.0,1.33,55.24,1.86,'1111122,1111122,1111122' 
COMPS,ioos:station:USF.COMPS:BGC:1,2016-01-01T11:00:00Z,26.4040,-81.8810,10.0,1.61,62.74,2.35,'1111122,1111122,1111122' 
COMPS,ioos:station:USF.COMPS:BGC:1,2016-01-01T11:06:00Z,26.4040,-81.8810,10.0,1.76,70.7,2.45,'1111122,1111122,1111122' 
COMPS,ioos:station:USF.COMPS:BGC:1,2016-01-01T11:12:00Z,26.4040,-81.8810,10.0,1.88,69.93,2.64,'1111122,1111122,1111122' 
COMPS,ioos:station:USF.COMPS:BGC:1,2016-01-01T11:18:00Z,26.4040,-81.8810,10.0,2.03,69.32,2.74,'1111122,1111122,1111122' 
COMPS,ioos:station:USF.COMPS:BGC:1,2016-01-01T11:24:00Z,26.4040,-81.8810,10.0,1.82,67.01,2.54,'1111122,1111122,1111122' 
COMPS,ioos:station:USF.COMPS:BGC:1,2016-01-01T11:30:00Z,26.4040,-81.8810,10.0,1.83,57.56,2.54,'1111122,1111122,1111122' 
COMPS,ioos:station:USF.COMPS:BGC:1,2016-01-01T11:36:00Z,26.4040,-81.8810,10.0,2.13,55.65,2.74,'1111122,1111122,1111122' 
COMPS,ioos:station:USF.COMPS:BGC:1,2016-01-01T11:42:00Z,26.4040,-81.8810,10.0,1.81,59.68,2.64,'1111122,1111122,1111122' 
COMPS,ioos:station:USF.COMPS:BGC:1,2016-01-01T11:48:00Z,26.4040,-81.8810,10.0,1.59,57.01,2.25,'1111122,1111122,1111122' 
COMPS,ioos:station:USF.COMPS:BGC:1,2016-01-01T11:54:00Z,26.4040,-81.8810,10.0,2.07,44.33,3.03,'1111122,1111122,1111122' 
COMPS,ioos:station:USF.COMPS:BGC:1,2016-01-01T12:00:00Z,26.4040,-81.8810,10.0,1.87,55.25,2.45,'1111122,1111122,1111122' 
COMPS,ioos:station:USF.COMPS:BGC:1,2016-01-01T12:06:00Z,26.4040,-81.8810,10.0,2.25,75.07,3.33,'1111122,1111122,1111122' 
COMPS,ioos:station:USF.COMPS:BGC:1,2016-01-01T12:12:00Z,26.4040,-81.8810,10.0,2.48,79.18,3.03,'1111122,1111122,1111122' 
COMPS,ioos:station:USF.COMPS:BGC:1,2016-01-01T12:18:00Z,26.4040,-81.8810,10.0,2.41,81.06,3.03,'1111122,1111122,1111122' 
COMPS,ioos:station:USF.COMPS:BGC:1,2016-01-01T12:24:00Z,26.4040,-81.8810,10.0,2.34,81.12,2.94,'1111122,1111122,1111122' 
COMPS,ioos:station:USF.COMPS:BGC:1,2016-01-01T12:30:00Z,26.4040,-81.8810,10.0,2.32,75.96,3.23,'1111122,1111122,1111122' 
COMPS,ioos:station:USF.COMPS:BGC:1,2016-01-01T12:36:00Z,26.4040,-81.8810,10.0,2.21,77.79,2.64,'1111122,1111122,1111122' 
COMPS,ioos:station:USF.COMPS:BGC:1,2016-01-01T12:42:00Z,26.4040,-81.8810,10.0,2.12,75.39,3.23,'1111122,1111122,1111122' 
COMPS,ioos:station:USF.COMPS:BGC:1,2016-01-01T12:48:00Z,26.4040,-81.8810,10.0,2.26,80.22,2.94,'1111122,1111122,1111122' 
COMPS,ioos:station:USF.COMPS:BGC:1,2016-01-01T12:54:00Z,26.4040,-81.8810,10.0,2.55,83.69,3.33,'1111122,1111122,1111122' 
COMPS,ioos:station:USF.COMPS:BGC:1,2016-01-01T13:00:00Z,26.4040,-81.8810,10.0,2.67,79.19,3.62,'1111122,1111122,1111122' 
COMPS,ioos:station:USF.COMPS:BGC:1,2016-01-01T13:06:00Z,26.4040,-81.8810,10.0,3.05,81.31,3.62,'1111122,1111122,1111122' 
COMPS,ioos:station:USF.COMPS:BGC:1,2016-01-01T13:12:00Z,26.4040,-81.8810,10.0,2.4,74.73,3.13,'1111122,1111122,1111122' 
COMPS,ioos:station:USF.COMPS:BGC:1,2016-01-01T13:18:00Z,26.4040,-81.8810,10.0,2.29,77.88,2.94,'1111122,1111122,1111122' 
COMPS,ioos:station:USF.COMPS:BGC:1,2016-01-01T13:24:00Z,26.4040,-81.8810,10.0,2.38,84.19,3.13,'1111122,1111122,1111122' 
COMPS,ioos:station:USF.COMPS:BGC:1,2016-01-01T13:30:00Z,26.4040,-81.8810,10.0,2.97,90.48,3.82,'1111122,1111122,1111122' 
COMPS,ioos:station:USF.COMPS:BGC:1,2016-01-01T13:36:00Z,26.4040,-81.8810,10.0,3.01,90.86,3.82,'1111122,1111122,1111122' 
COMPS,ioos:station:USF.COMPS:BGC:1,2016-01-01T13:42:00Z,26.4040,-81.8810,10.0,3.43,94.25,4.41,'1111122,1111122,1111122' 
COMPS,ioos:station:USF.COMPS:BGC:1,2016-01-01T13:48:00Z,26.4040,-81.8810,10.0,3.32,93.67,4.31,'1111122,1111122,1111122' 
COMPS,ioos:station:USF.COMPS:BGC:1,2016-01-01T13:54:00Z,26.4040,-81.8810,10.0,3.01,95.95,4.21,'1111122,1111122,1111122' 
COMPS,ioos:station:USF.COMPS:BGC:1,2016-01-01T14:00:00Z,26.4040,-81.8810,10.0,3.07,101.64,4.21,'1111122,1111122,1111122' 
COMPS,ioos:station:USF.COMPS:BGC:1,2016-01-01T14:06:00Z,26.4040,-81.8810,10.0,2.47,96.84,3.33,'1111122,1111122,1111122' 
COMPS,ioos:station:USF.COMPS:BGC:1,2016-01-01T14:12:00Z,26.4040,-81.8810,10.0,2.02,100.87,2.84,'1111122,1111122,1111122' 
COMPS,ioos:station:USF.COMPS:BGC:1,2016-01-01T14:18:00Z,26.4040,-81.8810,10.0,2.84,97.29,4.01,'1111122,1111122,1111122' 
COMPS,ioos:station:USF.COMPS:BGC:1,2016-01-01T14:24:00Z,26.4040,-81.8810,10.0,2.2,93.16,3.92,'1111122,1111122,1111122' 
COMPS,ioos:station:USF.COMPS:BGC:1,2016-01-01T14:30:00Z,26.4040,-81.8810,10.0,2.07,91.66,3.13,'1111122,1111122,1111122' 
COMPS,ioos:station:USF.COMPS:BGC:1,2016-01-01T14:36:00Z,26.4040,-81.8810,10.0,1.34,88.44,2.35,'1111122,1111122,1111122' 
COMPS,ioos:station:USF.COMPS:BGC:1,2016-01-01T14:42:00Z,26.4040,-81.8810,10.0,1.23,88.19,2.15,'1111122,1111122,1111122' 
COMPS,ioos:station:USF.COMPS:BGC:1,2016-01-01T14:48:00Z,26.4040,-81.8810,10.0,1.3,89.84,2.05,'1111122,1111122,1111122' 
COMPS,ioos:station:USF.COMPS:BGC:1,2016-01-01T14:54:00Z,26.4040,-81.8810,10.0,1.64,96.6,2.45,'1111122,1111122,1111122' 
COMPS,ioos:station:USF.COMPS:BGC:1,2016-01-01T15:00:00Z,26.4040,-81.8810,10.0,2.39,91.22,3.23,'1111122,1111122,1111122' 
COMPS,ioos:station:USF.COMPS:BGC:1,2016-01-01T15:06:00Z,26.4040,-81.8810,10.0,2.59,101.54,3.43,'1111122,1111122,1111122' 
COMPS,ioos:station:USF.COMPS:BGC:1,2016-01-01T15:12:00Z,26.4040,-81.8810,10.0,1.96,99.47,3.33,'1111122,1111122,1111122' 
COMPS,ioos:station:USF.COMPS:BGC:1,2016-01-01T15:18:00Z,26.4040,-81.8810,10.0,2.36,109.11,3.43,'1111122,1111122,1111122' 
COMPS,ioos:station:USF.COMPS:BGC:1,2016-01-01T15:24:00Z,26.4040,-81.8810,10.0,2.68,105.62,3.52,'1111122,1111122,1111122' 
COMPS,ioos:station:USF.COMPS:BGC:1,2016-01-01T15:30:00Z,26.4040,-81.8810,10.0,2.4,115.16,3.52,'1111122,1111122,1111122' 
COMPS,ioos:station:USF.COMPS:BGC:1,2016-01-01T15:36:00Z,26.4040,-81.8810,10.0,3.2,105.56,4.31,'1111122,1111122,1111122' 
COMPS,ioos:station:USF.COMPS:BGC:1,2016-01-01T15:42:00Z,26.4040,-81.8810,10.0,2.49,111.34,3.62,'1111122,1111122,1111122' 
COMPS,ioos:station:USF.COMPS:BGC:1,2016-01-01T15:48:00Z,26.4040,-81.8810,10.0,2.45,105.37,3.52,'1111122,1111122,1111122' 
COMPS,ioos:station:USF.COMPS:BGC:1,2016-01-01T15:54:00Z,26.4040,-81.8810,10.0,2.14,106.31,2.94,'1111122,1111122,1111122' 
COMPS,ioos:station:USF.COMPS:BGC:1,2016-01-01T16:00:00Z,26.4040,-81.8810,10.0,3.0,137.11,3.92,'1111122,1111122,1111122' 
COMPS,ioos:station:USF.COMPS:BGC:1,2016-01-01T16:06:00Z,26.4040,-81.8810,10.0,2.92,127.29,3.82,'1111122,1111122,1111122' 
COMPS,ioos:station:USF.COMPS:BGC:1,2016-01-01T16:12:00Z,26.4040,-81.8810,10.0,2.42,121.52,3.23,'1111122,1111122,1111122' 
COMPS,ioos:station:USF.COMPS:BGC:1,2016-01-01T16:18:00Z,26.4040,-81.8810,10.0,2.79,158.18,3.72,'1111122,1111122,1111122' 
COMPS,ioos:station:USF.COMPS:BGC:1,2016-01-01T16:24:00Z,26.4040,-81.8810,10.0,2.53,161.65,4.11,'1111122,1111122,1111122' 
COMPS,ioos:station:USF.COMPS:BGC:1,2016-01-01T16:30:00Z,26.4040,-81.8810,10.0,2.31,222.7,2.84,'1111122,1111122,1111122' 
COMPS,ioos:station:USF.COMPS:BGC:1,2016-01-01T16:36:00Z,26.4040,-81.8810,10.0,2.47,222.71,2.64,'1111122,1111122,1111122' 
COMPS,ioos:station:USF.COMPS:BGC:1,2016-01-01T16:42:00Z,26.4040,-81.8810,10.0,2.53,229.38,3.03,'1111122,1111122,1111122' 
COMPS,ioos:station:USF.COMPS:BGC:1,2016-01-01T16:48:00Z,26.4040,-81.8810,10.0,2.7,223.85,3.13,'1111122,1111122,1111122' 
COMPS,ioos:station:USF.COMPS:BGC:1,2016-01-01T16:54:00Z,26.4040,-81.8810,10.0,2.46,225.16,2.84,'1111122,1111122,1111122' 
COMPS,ioos:station:USF.COMPS:BGC:1,2016-01-02T03:00:00Z,26.4040,-81.8810,10.0,2.8,326.58,3.62,'1111122,1111122,1111122' 
COMPS,ioos:station:USF.COMPS:BGC:1,2016-01-02T03:06:00Z,26.4040,-81.8810,10.0,2.41,330.33,3.03,'1111122,1111122,1111122' 
COMPS,ioos:station:USF.COMPS:BGC:1,2016-01-02T03:12:00Z,26.4040,-81.8810,10.0,2.47,330.09,3.03,'1111122,1111122,1111122' 
COMPS,ioos:station:USF.COMPS:BGC:1,2016-01-02T03:18:00Z,26.4040,-81.8810,10.0,2.26,326.51,2.84,'1111122,1111122,1111122' 
COMPS,ioos:station:USF.COMPS:BGC:1,2016-01-02T03:24:00Z,26.4040,-81.8810,10.0,1.93,334.71,2.54,'1111122,1111122,1111122' 
COMPS,ioos:station:USF.COMPS:BGC:1,2016-01-02T03:30:00Z,26.4040,-81.8810,10.0,1.69,344.66,2.25,'1111122,1111122,1111122' 
COMPS,ioos:station:USF.COMPS:BGC:1,2016-01-02T03:36:00Z,26.4040,-81.8810,10.0,1.68,358.03,2.05,'1111122,1111122,1111122' 
COMPS,ioos:station:USF.COMPS:BGC:1,2016-01-02T03:42:00Z,26.4040,-81.8810,10.0,1.97,359.49,2.84,'1111122,1111122,1111122' 
COMPS,ioos:station:USF.COMPS:BGC:1,2016-01-02T03:48:00Z,26.4040,-81.8810,10.0,2.34,355.57,2.84,'1111122,1111122,1111122' 
COMPS,ioos:station:USF.COMPS:BGC:1,2016-01-02T03:54:00Z,26.4040,-81.8810,10.0,2.19,354.3,2.84,'1111122,1111122,1111122' 
COMPS,ioos:station:USF.COMPS:BGC:1,2016-01-02T04:00:00Z,26.4040,-81.8810,10.0,2.34,357.39,2.84,'1111122,1111122,1111122' 
COMPS,ioos:station:USF.COMPS:BGC:1,2016-01-02T04:06:00Z,26.4040,-81.8810,10.0,2.03,349.42,2.45,'1111122,1111122,1111122' 
COMPS,ioos:station:USF.COMPS:BGC:1,2016-01-02T04:12:00Z,26.4040,-81.8810,10.0,2.16,0.26,2.74,'1111122,1111122,1111122' 
COMPS,ioos:station:USF.COMPS:BGC:1,2016-01-02T04:18:00Z,26.4040,-81.8810,10.0,2.54,352.06,3.23,'1111122,1111122,1111122' 
COMPS,ioos:station:USF.COMPS:BGC:1,2016-01-02T04:24:00Z,26.4040,-81.8810,10.0,3.1,356.18,4.01,'1111122,1111122,1111122' 
COMPS,ioos:station:USF.COMPS:BGC:1,2016-01-02T04:30:00Z,26.4040,-81.8810,10.0,2.24,349.57,2.94,'1111122,1111122,1111122' 
COMPS,ioos:station:USF.COMPS:BGC:1,2016-01-02T04:36:00Z,26.4040,-81.8810,10.0,2.14,354.89,2.64,'1111122,1111122,1111122' 
COMPS,ioos:station:USF.COMPS:BGC:1,2016-01-02T04:42:00Z,26.4040,-81.8810,10.0,1.87,356.08,2.64,'1111122,1111122,1111122' 
COMPS,ioos:station:USF.COMPS:BGC:1,2016-01-02T04:48:00Z,26.4040,-81.8810,10.0,1.89,17.56,2.25,'1111122,1111122,1111122' 
COMPS,ioos:station:USF.COMPS:BGC:1,2016-01-02T04:54:00Z,26.4040,-81.8810,10.0,2.54,10.43,3.03,'1111122,1111122,1111122' 
COMPS,ioos:station:USF.COMPS:BGC:1,2016-01-02T05:00:00Z,26.4040,-81.8810,10.0,2.18,357.69,2.94,'1111122,1111122,1111122' 
COMPS,ioos:station:USF.COMPS:BGC:1,2016-01-02T05:06:00Z,26.4040,-81.8810,10.0,1.9,6.91,2.35,'1111122,1111122,1111122' 
COMPS,ioos:station:USF.COMPS:BGC:1,2016-01-02T05:12:00Z,26.4040,-81.8810,10.0,1.65,354.76,2.15,'1111122,1111122,1111122' 
COMPS,ioos:station:USF.COMPS:BGC:1,2016-01-02T05:18:00Z,26.4040,-81.8810,10.0,1.52,336.12,1.96,'1111122,1111122,1111122' 
COMPS,ioos:station:USF.COMPS:BGC:1,2016-01-02T05:24:00Z,26.4040,-81.8810,10.0,1.54,335.17,2.05,'1111122,1111122,1111122' 
COMPS,ioos:station:USF.COMPS:BGC:1,2016-01-02T05:30:00Z,26.4040,-81.8810,10.0,1.25,351.37,1.66,'1111122,1111122,1111122' 
COMPS,ioos:station:USF.COMPS:BGC:1,2016-01-02T05:36:00Z,26.4040,-81.8810,10.0,0.54,5.97,0.98,'1111122,1111122,1111122' 
COMPS,ioos:station:USF.COMPS:BGC:1,2016-01-02T05:42:00Z,26.4040,-81.8810,10.0,0.27,56.42,0.68,'1111122,1111122,1111122' 
COMPS,ioos:station:USF.COMPS:BGC:1,2016-01-02T05:48:00Z,26.4040,-81.8810,10.0,0.6,67.13,0.98,'1111122,1111122,1111122' 
COMPS,ioos:station:USF.COMPS:BGC:1,2016-01-02T05:54:00Z,26.4040,-81.8810,10.0,1.11,24.93,1.47,'1111122,1111122,1111122' 
COMPS,ioos:station:USF.COMPS:BGC:1,2016-01-02T06:00:00Z,26.4040,-81.8810,10.0,0.84,30.31,1.37,'1111122,1111122,1111122' 
COMPS,ioos:station:USF.COMPS:BGC:1,2016-01-02T06:06:00Z,26.4040,-81.8810,10.0,1.04,29.41,1.37,'1111122,1111122,1111122' 
COMPS,ioos:station:USF.COMPS:BGC:1,2016-01-02T06:12:00Z,26.4040,-81.8810,10.0,0.71,31.98,1.17,'1111122,1111122,1111122' 
COMPS,ioos:station:USF.COMPS:BGC:1,2016-01-02T06:18:00Z,26.4040,-81.8810,10.0,1.46,348.08,2.35,'1111122,1111122,1111122' 
COMPS,ioos:station:USF.COMPS:BGC:1,2016-01-02T06:24:00Z,26.4040,-81.8810,10.0,2.34,357.58,2.94,'1111122,1111122,1111122' 
COMPS,ioos:station:USF.COMPS:BGC:1,2016-01-02T06:30:00Z,26.4040,-81.8810,10.0,2.32,1.56,3.03,'1111122,1111122,1111122' 
COMPS,ioos:station:USF.COMPS:BGC:1,2016-01-02T06:36:00Z,26.4040,-81.8810,10.0,2.11,356.15,2.64,'1111122,1111122,1111122' 
COMPS,ioos:station:USF.COMPS:BGC:1,2016-01-02T06:42:00Z,26.4040,-81.8810,10.0,2.29,347.27,2.54,'1111122,1111122,1111122' 
COMPS,ioos:station:USF.COMPS:BGC:1,2016-01-02T06:48:00Z,26.4040,-81.8810,10.0,2.17,351.64,2.64,'1111122,1111122,1111122' 
COMPS,ioos:station:USF.COMPS:BGC:1,2016-01-02T06:54:00Z,26.4040,-81.8810,10.0,1.87,0.63,2.25,'1111122,1111122,1111122' 
COMPS,ioos:station:USF.COMPS:BGC:1,2016-01-02T07:00:00Z,26.4040,-81.8810,10.0,1.74,9.88,2.64,'1111122,1111122,1111122' 
COMPS,ioos:station:USF.COMPS:BGC:1,2016-01-02T07:06:00Z,26.4040,-81.8810,10.0,1.54,36.34,2.25,'1111122,1111122,1111122' 
COMPS,ioos:station:USF.COMPS:BGC:1,2016-01-02T07:12:00Z,26.4040,-81.8810,10.0,1.5,60.8,2.05,'1111122,1111122,1111122' 
COMPS,ioos:station:USF.COMPS:BGC:1,2016-01-02T07:18:00Z,26.4040,-81.8810,10.0,1.76,24.89,2.25,'1111122,1111122,1111122' 
COMPS,ioos:station:USF.COMPS:BGC:1,2016-01-02T07:24:00Z,26.4040,-81.8810,10.0,2.07,17.88,2.35,'1111122,1111122,1111122' 
COMPS,ioos:station:USF.COMPS:BGC:1,2016-01-02T07:30:00Z,26.4040,-81.8810,10.0,2.64,1.12,3.33,'1111122,1111122,1111122' 
COMPS,ioos:station:USF.COMPS:BGC:1,2016-01-02T07:36:00Z,26.4040,-81.8810,10.0,2.63,349.74,3.52,'1111122,1111122,1111122' 
COMPS,ioos:station:USF.COMPS:BGC:1,2016-01-02T07:42:00Z,26.4040,-81.8810,10.0,3.29,351.15,3.92,'1111122,1111122,1111122' 
COMPS,ioos:station:USF.COMPS:BGC:1,2016-01-02T07:48:00Z,26.4040,-81.8810,10.0,3.85,349.29,4.7,'1111122,1111122,1111122' 
COMPS,ioos:station:USF.COMPS:BGC:1,2016-01-02T07:54:00Z,26.4040,-81.8810,10.0,3.37,345.64,4.01,'1111122,1111122,1111122' 
COMPS,ioos:station:USF.COMPS:BGC:1,2016-01-02T08:00:00Z,26.4040,-81.8810,10.0,3.68,357.55,4.31,'1111122,1111122,1111122' 
COMPS,ioos:station:USF.COMPS:BGC:1,2016-01-02T08:06:00Z,26.4040,-81.8810,10.0,3.72,354.71,4.41,'1111122,1111122,1111122' 
COMPS,ioos:station:USF.COMPS:BGC:1,2016-01-02T08:12:00Z,26.4040,-81.8810,10.0,4.31,352.96,5.09,'1111122,1111122,1111122' 
COMPS,ioos:station:USF.COMPS:BGC:1,2016-01-02T08:18:00Z,26.4040,-81.8810,10.0,4.13,349.71,4.9,'1111122,1111122,1111122' 
COMPS,ioos:station:USF.COMPS:BGC:1,2016-01-02T08:24:00Z,26.4040,-81.8810,10.0,4.65,346.03,5.88,'1111122,1111122,1111122' 
COMPS,ioos:station:USF.COMPS:BGC:1,2016-01-02T08:30:00Z,26.4040,-81.8810,10.0,4.49,353.4,5.39,'1111122,1111122,1111122' 
COMPS,ioos:station:USF.COMPS:BGC:1,2016-01-02T08:36:00Z,26.4040,-81.8810,10.0,4.32,355.48,5.58,'1111122,1111122,1111122' 